Terminal Aerodrome Forecast
Issued by NWS

Home | Current Version | Previous Version | Text Only | Print | Product List | Glossary On
Versions: 1 2 3 4 5 6 7 8 9 10 11 12 13
000
FTUS44 KSJT 291100
TAFSOA
TAF
KSOA 291120Z 2912/3012 VRB03KT P6SM FEW120
     FM291700 15009KT P6SM FEW060 SCT120=

USA.gov is the U.S. government's official web portal to all federal, state and local government web resources and services.